Cork, Ireland

12:07 PM IST on May 29, 2017 (GMT +0100)
Cork

Weather History for EICK - December, 2013

Change the Weather History Date:

Sunday, December 29, 2013

  Actual Average Record
Temperature  
Mean Temperature 41 °F -  
Max Temperature 50 °F 46 °F 55 °F (2004)
Min Temperature 32 °F 37 °F 24 °F (2000)
Degree Days  
Heating Degree Days 24    
Moisture  
Dew Point 40 °F    
Average Humidity 91    
Maximum Humidity 100    
Minimum Humidity 76    
Precipitation  
Precipitation 0.24 in 0.19 in - ()
Sea Level Pressure  
Sea Level Pressure 29.74 in    
Wind  
Wind Speed 12 mph ()    
Max Wind Speed 30 mph    
Max Gust Speed 46 mph    
Visibility 6.1 miles    
Events Rain    
Averages and records for this station are not official NWS values.
T = Trace of Precipitation, MM = Missing Value Source: Averaged Metar Reports

Daily Weather History Graph

Daily Weather History Graph

Search for Another Location

Airport or City:

Trip Planner

Search our weather history database for the weather conditions in past years. The results will help you decide how hot, cold, wet, or windy it might be!

Date:

Astronomy

Dec. 29, 2013 Rise Set
Actual Time 8:41 AM GMT 4:30 PM GMT
Civil Twilight 8:00 AM GMT 5:11 PM GMT
Nautical Twilight 7:17 AM GMT 5:54 PM GMT
Astronomical Twilight 6:36 AM GMT 6:35 PM GMT
Moon 4:57 AM GMT 2:08 PM GMT
Length of Visible Light 9h 10m
Length of Day
7h 49m
Waning Crescent, 12% of the Moon is Illuminated
Dec 29
Waning Crescent
Jan 1
New
Jan 8
First Quarter
Jan 16
Full
Jan 24
Last Quarter

Hourly Weather History & Observations

Time (GMT) Temp. Windchill Dew Point Humidity Pressure Visibility Wind Dir Wind Speed Gust Speed Precip Events Conditions
12:00 AM 37 °F - 32 °F 76% 29.85 in 12 mi West 8.9 mph - -   Scattered Clouds
12:00 AM 37.4 °F 30.8 °F 32.0 °F 81% 29.83 in 6.2 mi West 9.2 mph - N/A   Partly Cloudy
12:30 AM 37.4 °F 34.9 °F 33.8 °F 87% 29.83 in 6.2 mi Variable 3.5 mph - N/A   Partly Cloudy
1:00 AM 34 °F - 31 °F 84% 29.86 in 12 mi WSW 4.5 mph - -   Scattered Clouds
1:00 AM 33.8 °F 29.6 °F 30.2 °F 87% 29.83 in 6.2 mi WSW 4.6 mph - N/A   Partly Cloudy
1:30 AM 35.6 °F 29.2 °F 32.0 °F 87% 29.83 in 6.2 mi WSW 8.1 mph - N/A   Partly Cloudy
2:00 AM 36 °F - 33 °F 82% 29.87 in 12 mi WSW 11.2 mph - -   Scattered Clouds
2:00 AM 35.6 °F 28.0 °F 32.0 °F 87% 29.83 in 6.2 mi WSW 10.4 mph - N/A   Partly Cloudy
2:30 AM 37.4 °F 30.3 °F 33.8 °F 87% 29.83 in 6.2 mi West 10.4 mph - N/A   Partly Cloudy
3:00 AM 35 °F - 32 °F 84% 29.90 in 12 mi WSW 6.7 mph - -   Scattered Clouds
3:00 AM 35.6 °F 29.9 °F 32.0 °F 87% 29.86 in 6.2 mi WSW 6.9 mph - N/A   Partly Cloudy
3:30 AM 35.6 °F 27.5 °F 32.0 °F 87% 29.89 in 6.2 mi West 11.5 mph - N/A   Partly Cloudy
4:00 AM 36 °F - 32 °F 80% 29.92 in 12 mi WSW 8.9 mph - -   Scattered Clouds
4:00 AM 35.6 °F 28.6 °F 32.0 °F 87% 29.89 in 6.2 mi WSW 9.2 mph - N/A   Partly Cloudy
4:30 AM 35.6 °F 28.0 °F 32.0 °F 87% 29.89 in 6.2 mi WSW 10.4 mph - N/A   Partly Cloudy
5:00 AM 36 °F - 32 °F 81% 29.91 in 12 mi WSW 11.2 mph - -  
5:00 AM 35.6 °F 28.0 °F 32.0 °F 87% 29.86 in - WSW 10.4 mph - N/A   Clear
5:30 AM 35.6 °F 29.2 °F 32.0 °F 87% 29.86 in - WSW 8.1 mph - N/A   Clear
6:00 AM 33 °F - 30 °F 85% 29.92 in 12 mi SW 8.9 mph - -  
6:00 AM 33.8 °F 27.0 °F 30.2 °F 87% 29.89 in - SW 8.1 mph - N/A   Clear
6:30 AM 32.0 °F 25.6 °F 30.2 °F 93% 29.89 in - SW 6.9 mph - N/A   Clear
7:00 AM 32 °F - 30 °F 90% 29.92 in 12 mi SSW 6.7 mph - -   Clear
7:00 AM 32.0 °F 26.4 °F 30.2 °F 93% 29.89 in - SSW 5.8 mph - N/A   Clear
7:30 AM 32.0 °F 27.5 °F 32.0 °F 100% 29.89 in 6.2 mi SSW 4.6 mph - N/A   Partly Cloudy
8:00 AM 32 °F - 31 °F 94% 29.91 in 12 mi SSW 4.5 mph - -   Scattered Clouds
8:00 AM 32.0 °F 27.5 °F 30.2 °F 93% 29.89 in 6.2 mi SSW 4.6 mph - N/A   Partly Cloudy
8:30 AM 33.8 °F 29.6 °F 32.0 °F 93% 29.86 in 6.2 mi South 4.6 mph - N/A   Partly Cloudy
9:00 AM 35 °F - 33 °F 87% 29.91 in 16 mi South 6.7 mph - -   Partly Cloudy
9:00 AM 33.8 °F 28.6 °F 32.0 °F 93% 29.89 in 6.2 mi South 5.8 mph - N/A   Scattered Clouds
9:30 AM 37.4 °F 32.8 °F 35.6 °F 93% 29.89 in 6.2 mi South 5.8 mph - N/A   Scattered Clouds
10:00 AM 39 °F - 37 °F 89% 29.90 in 16 mi South 8.9 mph - -   Scattered Clouds
10:00 AM 39.2 °F 33.6 °F 37.4 °F 93% 29.86 in 6.2 mi South 8.1 mph - N/A   Mostly Cloudy
10:30 AM 41.0 °F 34.7 °F 39.2 °F 93% 29.86 in 6.2 mi South 10.4 mph - N/A   Mostly Cloudy
11:00 AM 43 °F - 40 °F 85% 29.87 in 16 mi South 11.2 mph - -   Scattered Clouds
11:00 AM 42.8 °F 36.6 °F 39.2 °F 87% 29.83 in 6.2 mi South 11.5 mph - N/A   Mostly Cloudy
11:30 AM 44.6 °F 37.8 °F 41.0 °F 87% 29.83 in 6.2 mi South 15.0 mph - N/A   Mostly Cloudy
12:00 PM 46 °F - 42 °F 80% 29.84 in 12 mi South 15.7 mph - -   Partly Cloudy
12:00 PM 46.4 °F 40.1 °F 42.8 °F 87% 29.80 in 6.2 mi South 15.0 mph - N/A   Mostly Cloudy
12:30 PM 44.6 °F 36.9 °F 42.8 °F 93% 29.77 in 6.2 mi South 18.4 mph - N/A Rain Light Rain
1:00 PM 46 °F - 43 °F 86% 29.80 in 6 mi South 17.9 mph - - Rain Light Rain
1:00 PM 46.4 °F 39.2 °F 42.8 °F 87% 29.77 in 5.6 mi South 18.4 mph - N/A Rain Light Rain
1:30 PM 46.4 °F 38.7 °F 44.6 °F 93% 29.74 in 5.6 mi South 20.7 mph 33.4 mph N/A Rain Light Rain
2:00 PM 46 °F - 45 °F 94% 29.75 in 2 mi South 24.6 mph - - Rain Light Rain
2:00 PM 46.4 °F 38.1 °F 44.6 °F 93% 29.74 in 2.5 mi South 24.2 mph 39.1 mph N/A Rain Light Rain
2:30 PM 46.4 °F 38.5 °F 46.4 °F 100% 29.71 in 3.1 mi South 21.9 mph 35.7 mph N/A Rain Light Rain
3:00 PM 47 °F - 46 °F 97% 29.70 in 6 mi South 22.4 mph - - Rain Light Rain
3:00 PM 48.2 °F - 46.4 °F 93% 29.68 in 5.6 mi South 23.0 mph 35.7 mph N/A Rain Light Rain
3:30 PM 48.2 °F - 46.4 °F 93% 29.68 in 3.7 mi South 24.2 mph - N/A Rain Light Rain
4:00 PM 48 °F - 47 °F 95% 29.68 in 3 mi South 24.6 mph - - Rain Light Rain
4:00 PM 48.2 °F - 46.4 °F 93% 29.65 in 3.1 mi South 24.2 mph 41.4 mph N/A Rain Light Rain
4:30 PM 48.2 °F - 48.2 °F 100% 29.62 in 2.8 mi South 26.5 mph 40.3 mph N/A Rain Light Rain
5:00 PM 48 °F - 48 °F 98% 29.63 in 2 mi South 24.6 mph - - Rain Light Rain
5:00 PM 48.2 °F - 48.2 °F 100% 29.62 in 2.2 mi South 24.2 mph 35.7 mph N/A Rain Light Rain
5:30 PM 48.2 °F - 48.2 °F 100% 29.59 in 2.2 mi South 27.6 mph 42.6 mph N/A Rain Light Rain
6:00 PM 49 °F - 48 °F 95% 29.60 in 2 mi South 26.8 mph - - Rain Light Rain
6:00 PM 48.2 °F - 48.2 °F 100% 29.59 in 2.5 mi South 27.6 mph 40.3 mph N/A Rain Light Rain
6:30 PM 48.2 °F - 48.2 °F 100% 29.56 in 2.8 mi South 27.6 mph 46.0 mph N/A Rain Light Rain
7:00 PM 49 °F - 48 °F 96% 29.57 in 2 mi SSW 29.1 mph - - Rain Rain
7:00 PM 48.2 °F - 48.2 °F 100% 29.53 in 2.5 mi SSW 28.8 mph 41.4 mph N/A Rain Light Rain
7:30 PM 48.2 °F - 48.2 °F 100% 29.53 in 2.5 mi SSW 26.5 mph 41.4 mph N/A Rain Light Rain
8:00 PM 49 °F - 48 °F 97% 29.55 in 2 mi SSW 26.8 mph - - Rain Rain
8:00 PM 48.2 °F - 48.2 °F 100% 29.53 in 2.5 mi SSW 26.5 mph 43.7 mph N/A Rain Rain
8:30 PM 50.0 °F - 48.2 °F 94% 29.50 in 3.7 mi SSW 28.8 mph - N/A Rain Rain
9:00 PM 49 °F - 49 °F 99% 29.52 in 4 mi SSW 26.8 mph - - Rain Rain
9:00 PM 50.0 °F - 48.2 °F 94% 29.50 in 3.7 mi SSW 26.5 mph 39.1 mph N/A Rain Rain
9:30 PM 50.0 °F - 48.2 °F 94% 29.47 in 3.7 mi SSW 29.9 mph 46.0 mph N/A Rain Rain
10:00 PM 49 °F - 49 °F 99% 29.49 in 4 mi SSW 29.1 mph - - Rain Rain
10:00 PM 50.0 °F - 48.2 °F 94% 29.47 in 3.7 mi SSW 29.9 mph 46.0 mph N/A Rain Rain
10:30 PM 50.0 °F - 48.2 °F 94% 29.44 in 3.7 mi SSW 29.9 mph 44.9 mph N/A Rain Rain
11:00 PM 49 °F - 49 °F 100% 29.46 in 4 mi SSW 29.1 mph - - Rain Light Rain
11:00 PM 50.0 °F - 48.2 °F 94% 29.44 in 3.7 mi SSW 28.8 mph 41.4 mph N/A Rain Light Rain
11:30 PM 50.0 °F - 48.2 °F 94% 29.42 in 4.3 mi SSW 28.8 mph 41.4 mph N/A Rain Light Rain